Overview Statistics Trail Chart Weather Telemetry Raw packets
 

This is the latest recevied weather packets stored in our database for station/object KI6SYE. If no packets are shown the sender has not sent any weather packets the latest 10 day(s).

<< 100 101 102 103 104 105 106 >>
Time Temp. Humidity Pressure Rain* Wind** Luminosity Snow
1787928254 24.44° C 87% 1011.6 hPa 0 mm - 64 W/m² -
1787927953 24.44° C 87% 1011.4 hPa 0 mm - 91 W/m² -
1787927648 23.89° C 87% 1011.4 hPa 0 mm - 55 W/m² -
1787927347 23.89° C 88% 1011.6 hPa 0 mm - 63 W/m² -
1787927038 23.33° C 89% 1011.4 hPa 0 mm - 65 W/m² -
1787926733 23.33° C 90% 1011.2 hPa 0 mm - 54 W/m² -
1787926431 23.33° C 90% 1011.1 hPa 0 mm - 33 W/m² -
1787926126 22.78° C 90% 1011.2 hPa 0 mm - 41 W/m² -
1787925824 22.78° C 90% 1011.1 hPa 0 mm - 35 W/m² -
1787925519 22.78° C 90% 1011.2 hPa 0 mm - 24 W/m² -
1787925214 22.78° C 90% 1011.2 hPa 0 mm - 21 W/m² -
1787924913 22.78° C 90% 1011.1 hPa 0 mm - 15 W/m² -
1787924607 22.78° C 89% 1011 hPa 0 mm - 12 W/m² -
1787924303 22.78° C 89% 1011 hPa 0 mm - 9 W/m² -
1787923998 22.22° C 89% 1010.9 hPa 0 mm - 7 W/m² -
1787923698 22.22° C 89% 1011 hPa 0 mm - 4 W/m² -
1787923393 22.22° C 90% 1010.8 hPa 0 mm - 2 W/m² -
1787923093 22.22° C 90% 1010.8 hPa 0 mm - 1 W/m² -
1787922788 22.22° C 90% 1010.7 hPa 0 mm - 0 W/m² -
1787922487 22.22° C 90% 1011 hPa 0 mm - 0 W/m² -
1787922187 22.22° C 90% 1010.5 hPa 0 mm - 0 W/m² -
1787921884 22.22° C 90% 1010.6 hPa 0 mm - 0 W/m² -
1787921579 22.22° C 90% 1010.7 hPa 0 mm - 0 W/m² -
1787921274 22.22° C 90% 1010.5 hPa 0 mm - 0 W/m² -
1787920970 21.67° C 89% 1010.5 hPa 0 mm - 0 W/m² -

* Rain latest hour (hover to see other rain measurements)
** Current wind speed in m/s (hover to see current wind gust speed)